Simultaneous Nadir Overpasses (SNOs) Predictions

Prediction of SNOs between NOAA-15 and METOP-C Satellite Orbit:

Table of predicted SNOs for the next 14.0 days since TLE Epoch: 8/16/2019
Index Date (NOAA-15) Time (NOAA-15) Lat,Lon (NOAA-15) SZA (NOAA-15 ) Date (METOP-C) Time (METOP-C) Lat,Lon (METOP-C) SZA (METOP-C ) Distance(km) Time Diff (sec)
1 08/23/2019 20:22:37 -80.83, 88.16 108.99 08/23/2019 20:21:24 -80.84, 88.18 109.00 1.98 73
2 08/23/2019 21:13:06 80.82,-104.44 71.03 08/23/2019 21:12:05 80.84,-104.48 71.02 2.18 61
3 08/23/2019 22:03:40 -80.83, 62.79 108.97 08/23/2019 22:02:46 -80.84, 62.70 109.00 1.62 54
4 08/23/2019 22:54:09 80.83,-129.82 71.05 08/23/2019 22:53:27 80.84,-129.97 71.02 2.75 42
5 08/23/2019 23:44:43 -80.84, 37.41 108.95 08/23/2019 23:44:07 -80.85, 37.57 108.95 2.86 36
6 08/24/2019 00:35:12 80.84,-155.20 71.06 08/24/2019 00:34:48 80.85,-155.11 71.07 1.93 24
7 08/24/2019 01:25:45 -80.84, 12.04 108.93 08/24/2019 01:25:28 -80.84, 12.08 108.94 0.86 17
8 08/24/2019 02:16:14 80.84, 179.42 71.08 08/24/2019 02:16:09 80.84, 179.41 71.08 0.61 5
9 08/24/2019 03:06:48 -80.85, -13.33 108.91 08/24/2019 03:06:50 -80.83, -13.40 108.94 2.43 2
10 08/24/2019 03:57:17 80.85, 154.05 71.10 08/24/2019 03:57:31 80.83, 153.92 71.08 3.07 14
11 08/24/2019 04:47:51 -80.85, -38.70 108.90 08/24/2019 04:48:11 -80.84, -38.54 108.88 3.27 20
12 08/24/2019 05:38:20 80.86, 128.67 71.12 08/24/2019 05:38:52 80.84, 128.79 71.13 2.61 32
13 08/24/2019 06:28:53 -80.84, -63.72 108.86 08/24/2019 06:29:32 -80.85, -63.67 108.83 1.49 39
14 08/24/2019 07:19:22 80.84, 103.65 71.16 08/24/2019 07:20:13 80.85, 103.65 71.18 1.09 51
15 08/24/2019 08:09:56 -80.85, -89.09 108.84 08/24/2019 08:10:54 -80.85, -89.16 108.83 1.14 58
16 08/24/2019 09:00:25 80.85, 78.27 71.18 08/24/2019 09:01:35 80.84, 78.17 71.19 1.88 70




NCC Satellite Simultaneous Nadir Overpasses (SNOs) Prediction Service
